| time (UTC) | temp F | wind direction | speed MPH | gust MPH | rain 1hr in | rain 24hr in | rain mn in | humidity % | barometer mb |
| 20260905001603 | 86 | 207 | 4.0 | 11.0 | 0.00 | 0.00 | 0.00 | 33 | 1015.9 |
| 20260905000144 | 88 | 195 | 4.0 | 12.0 | 0.00 | 0.00 | 0.00 | 30 | 1015.9 |
| 20260904234607 | 88 | 221 | 5.0 | 12.0 | 0.00 | 0.00 | 0.00 | 30 | 1015.8 |
| 20260904233105 | 88 | 134 | 3.0 | 13.0 | 0.00 | 0.00 | 0.00 | 36 | 1015.8 |
| 20260904231604 | 88 | 111 | 4.0 | 15.0 | 0.00 | 0.00 | 0.00 | 36 | 1015.8 |
| 20260904230114 | 86 | 151 | 3.0 | 13.0 | 0.00 | 0.00 | 0.00 | 37 | 1016.1 |
| 20260904224606 | 87 | 158 | 3.0 | 14.0 | 0.00 | 0.00 | 0.00 | 37 | 1016.1 |
| 20260904223107 | 87 | 227 | 5.0 | 14.0 | 0.00 | 0.00 | 0.00 | 38 | 1016.3 |
| 20260904221608 | 88 | 150 | 4.0 | 12.0 | 0.00 | 0.00 | 0.00 | 36 | 1016.4 |
| 20260904220107 | 89 | 208 | 5.0 | 11.0 | 0.00 | 0.00 | 0.00 | 35 | 1016.4 |
| 20260904214607 | 88 | 158 | 4.0 | 11.0 | 0.00 | 0.00 | 0.00 | 36 | 1016.4 |
| 20260904213108 | 89 | 186 | 5.0 | 13.0 | 0.00 | 0.00 | 0.00 | 33 | 1016.5 |
| 20260904211603 | 88 | 157 | 3.0 | 8.0 | 0.00 | 0.00 | 0.00 | 37 | 1016.7 |
| 20260904210104 | 88 | 155 | 3.0 | 14.0 | 0.00 | 0.00 | 0.00 | 37 | 1016.9 |
| 20260904204602 | 88 | 178 | 7.0 | 15.0 | 0.00 | 0.00 | 0.00 | 37 | 1017.0 |
| 20260904203100 | 86 | 117 | 3.0 | 14.0 | 0.00 | 0.00 | 0.00 | 36 | 1017.2 |
| 20260904201633 | 87 | 160 | 7.0 | 16.0 | 0.00 | 0.00 | 0.00 | 37 | 1017.2 |
| 20260904200110 | 90 | 165 | 5.0 | 13.0 | 0.00 | 0.00 | 0.00 | 35 | 1017.2 |
| 20260904194604 | 88 | 181 | 4.0 | 15.0 | 0.00 | 0.00 | 0.00 | 39 | 1017.3 |
| 20260904193107 | 87 | 0 | 4.0 | 16.0 | 0.00 | 0.00 | 0.00 | 40 | 1017.6 |
| 20260904191603 | 88 | 147 | 6.0 | 12.0 | 0.00 | 0.00 | 0.00 | 39 | 1017.9 |
| 20260904184604 | 86 | 230 | 5.0 | 11.0 | 0.00 | 0.00 | 0.00 | 45 | 1018.2 |
| 20260904183117 | 85 | 144 | 4.0 | 14.0 | 0.00 | 0.00 | 0.00 | 44 | 1018.3 |
| 20260904181613 | 84 | 152 | 5.0 | 13.0 | 0.00 | 0.00 | 0.00 | 45 | 1018.5 |
| 20260904180110 | 85 | 107 | 3.0 | 8.0 | 0.00 | 0.00 | 0.00 | 44 | 1018.5 |
| 20260904174605 | 84 | 85 | 4.0 | 11.0 | 0.00 | 0.00 | 0.00 | 46 | 1018.7 |
| 20260904173103 | 83 | 130 | 5.0 | 13.0 | 0.00 | 0.00 | 0.00 | 49 | 1018.7 |
| 20260904171615 | 82 | 128 | 4.0 | 10.0 | 0.00 | 0.00 | 0.00 | 50 | 1018.8 |
| 20260904170109 | 80 | 144 | 3.0 | 9.0 | 0.00 | 0.00 | 0.00 | 53 | 1018.8 |
| 20260904164637 | 80 | 92 | 4.0 | 13.0 | 0.00 | 0.00 | 0.00 | 54 | 1018.7 |
| 20260904163101 | 80 | 196 | 4.0 | 10.0 | 0.00 | 0.00 | 0.00 | 56 | 1018.7 |
| 20260904161559 | 80 | 157 | 5.0 | 14.0 | 0.00 | 0.00 | 0.00 | 54 | 1018.4 |
| 20260904160112 | 79 | 160 | 4.0 | 12.0 | 0.00 | 0.00 | 0.00 | 57 | 1018.7 |
| 20260904154605 | 79 | 132 | 4.0 | 9.0 | 0.00 | 0.00 | 0.00 | 59 | 1018.7 |
| 20260904153113 | 78 | 86 | 3.0 | 9.0 | 0.00 | 0.00 | 0.00 | 61 | 1018.6 |
| 20260904151601 | 76 | 73 | 2.0 | 6.0 | 0.00 | 0.00 | 0.00 | 63 | 1018.5 |
| 20260904150100 | 76 | 55 | 2.0 | 6.0 | 0.00 | 0.00 | 0.00 | 63 | 1018.5 |
| 20260904144604 | 75 | 115 | 2.0 | 5.0 | 0.00 | 0.00 | 0.00 | 63 | 1018.4 |
| 20260904143103 | 73 | 69 | 1.0 | 6.0 | 0.00 | 0.00 | 0.00 | 67 | 1018.3 |
| 20260904141603 | 73 | 103 | 1.0 | 3.0 | 0.00 | 0.00 | 0.00 | 67 | 1018.1 |
| 20260904140108 | 70 | 159 | 0.0 | 2.0 | 0.00 | 0.00 | 0.00 | 71 | 1018.0 |
| 20260904134604 | 67 | 0 | 0.0 | 1.0 | 0.00 | 0.00 | 0.00 | 75 | 1017.8 |
| 20260904133106 | 66 | 0 | 0.0 | 2.0 | 0.00 | 0.00 | 0.00 | 76 | 1017.6 |
| 20260904131612 | 65 | 0 | 0.0 | 2.0 | 0.00 | 0.00 | 0.00 | 77 | 1017.6 |
| 20260904130100 | 64 | 0 | 0.0 | 3.0 | 0.00 | 0.00 | 0.00 | 79 | 1017.4 |
| 20260904124607 | 64 | 292 | 0.0 | 2.0 | 0.00 | 0.00 | 0.00 | 80 | 1017.2 |
| 20260904123105 | 65 | 0 | 0.0 | 1.0 | 0.00 | 0.00 | 0.00 | 80 | 1017.0 |
| 20260904121606 | 65 | 0 | 0.0 | 2.0 | 0.00 | 0.00 | 0.00 | 80 | 1016.7 |
| 20260904114608 | 66 | 243 | 0.0 | 1.0 | 0.00 | 0.00 | 0.00 | 79 | 1016.5 |
| 20260904113106 | 66 | 0 | 0.0 | 3.0 | 0.00 | 0.00 | 0.00 | 79 | 1016.5 |
| 20260904111606 | 66 | 0 | 0.0 | 0.0 | 0.00 | 0.00 | 0.00 | 79 | 1016.5 |
| 20260904104601 | 66 | 0 | 0.0 | 2.0 | 0.00 | 0.00 | 0.00 | 77 | 1016.2 |
| 20260904103103 | 67 | 244 | 0.0 | 1.0 | 0.00 | 0.00 | 0.00 | 75 | 1016.2 |
| 20260904101611 | 68 | 0 | 0.0 | 1.0 | 0.00 | 0.00 | 0.00 | 75 | 1016.1 |
| 20260904100110 | 68 | 0 | 0.0 | 3.0 | 0.00 | 0.00 | 0.00 | 75 | 1015.9 |
| 20260904094609 | 68 | 0 | 0.0 | 2.0 | 0.00 | 0.00 | 0.00 | 74 | 1015.8 |
| 20260904093117 | 69 | 0 | 0.0 | 2.0 | 0.00 | 0.00 | 0.00 | 72 | 1015.8 |
| 20260904091615 | 70 | 0 | 0.0 | 0.0 | 0.00 | 0.00 | 0.00 | 70 | 1015.9 |
| 20260904090106 | 71 | 0 | 0.0 | 1.0 | 0.00 | 0.00 | 0.00 | 69 | 1015.8 |
| 20260904084606 | 71 | 186 | 0.0 | 1.0 | 0.00 | 0.00 | 0.00 | 68 | 1015.9 |
| 20260904083105 | 72 | 0 | 0.0 | 1.0 | 0.00 | 0.00 | 0.00 | 66 | 1015.8 |
| 20260904081611 | 72 | 0 | 0.0 | 5.0 | 0.00 | 0.00 | 0.00 | 65 | 1015.9 |
| 20260904080104 | 72 | 247 | 1.0 | 4.0 | 0.00 | 0.00 | 0.00 | 65 | 1015.9 |
| 20260904074600 | 72 | 0 | 0.0 | 2.0 | 0.00 | 0.00 | 0.00 | 65 | 1015.9 |
| 20260904073109 | 72 | 0 | 0.0 | 3.0 | 0.00 | 0.00 | 0.00 | 65 | 1015.9 |
| 20260904071606 | 72 | 0 | 0.0 | 2.0 | 0.00 | 0.00 | 0.00 | 63 | 1015.9 |
| 20260904070106 | 73 | 0 | 0.0 | 4.0 | 0.00 | 0.00 | 0.00 | 62 | 1015.8 |
| 20260904064605 | 73 | 219 | 0.0 | 3.0 | 0.00 | 0.00 | 0.00 | 60 | 1015.7 |
| 20260904063107 | 74 | 227 | 0.0 | 2.0 | 0.00 | 0.00 | 0.00 | 59 | 1015.6 |
| 20260904061605 | 73 | 0 | 0.0 | 3.0 | 0.00 | 0.00 | 0.00 | 59 | 1015.6 |
| 20260904060125 | 73 | 220 | 0.0 | 1.0 | 0.00 | 0.00 | 0.00 | 59 | 1015.7 |
| 20260904054636 | 74 | 0 | 0.0 | 2.0 | 0.00 | 0.00 | 0.00 | 59 | 1015.7 |
| 20260904053102 | 74 | 0 | 0.0 | 1.0 | 0.00 | 0.00 | 0.00 | 59 | 1015.7 |
| 20260904051607 | 74 | 92 | 0.0 | 2.0 | 0.00 | 0.00 | 0.00 | 58 | 1015.7 |
| 20260904044559 | 75 | 0 | 0.0 | 3.0 | 0.00 | 0.00 | 0.00 | 56 | 1015.7 |
| 20260904043107 | 75 | 0 | 0.0 | 2.0 | 0.00 | 0.00 | 0.00 | 55 | 1015.7 |
| 20260904041607 | 76 | 250 | 1.0 | 5.0 | 0.00 | 0.00 | 0.00 | 54 | 1015.6 |
| 20260904040109 | 75 | 237 | 1.0 | 4.0 | 0.00 | 0.00 | 0.00 | 54 | 1015.4 |
| 20260904034603 | 75 | 232 | 0.0 | 4.0 | 0.00 | 0.00 | 0.00 | 54 | 1015.5 |
| 20260904033102 | 75 | 0 | 0.0 | 2.0 | 0.00 | 0.00 | 0.00 | 54 | 1015.3 |
| 20260904031605 | 76 | 241 | 0.0 | 2.0 | 0.00 | 0.00 | 0.00 | 52 | 1015.2 |
| 20260904030104 | 77 | 0 | 0.0 | 3.0 | 0.00 | 0.00 | 0.00 | 50 | 1015.0 |
| 20260904024604 | 78 | 218 | 0.0 | 3.0 | 0.00 | 0.00 | 0.00 | 48 | 1015.0 |
| 20260904023107 | 78 | 198 | 0.0 | 4.0 | 0.00 | 0.00 | 0.00 | 48 | 1014.9 |
| 20260904021608 | 78 | 0 | 0.0 | 2.0 | 0.00 | 0.00 | 0.00 | 48 | 1014.7 |
| 20260904020106 | 80 | 192 | 0.0 | 1.0 | 0.00 | 0.00 | 0.00 | 45 | 1014.6 |
| 20260904014620 | 82 | 146 | 0.0 | 6.0 | 0.00 | 0.00 | 0.00 | 42 | 1014.6 |
| 20260904013122 | 83 | 147 | 2.0 | 7.0 | 0.00 | 0.00 | 0.00 | 40 | 1014.5 |
| 20260904011606 | 84 | 121 | 2.0 | 7.0 | 0.00 | 0.00 | 0.00 | 38 | 1014.4 |
| 20260904010115 | 85 | 148 | 2.0 | 6.0 | 0.00 | 0.00 | 0.00 | 36 | 1014.5 |
| 20260904004623 | 86 | 152 | 3.0 | 14.0 | 0.00 | 0.00 | 0.00 | 37 | 1014.5 |
| 20260904003133 | 86 | 130 | 2.0 | 8.0 | 0.00 | 0.00 | 0.00 | 38 | 1014.5 |